Time,TemperatureF,DewpointF,PressureIn,WindDirection,WindDirectionDegrees,WindSpeedMPH,WindSpeedGustMPH,Humidity,HourlyPrecipIn,Conditions,Clouds,dailyrainin,SoftwareType,DateUTC
2013-02-02 00:01:00,17.6,7.2,23.50,NE,45,0.0,3.0,63,0.00,,,0.04,meteohub,2013-02-02 07:01:00,
2013-02-02 00:06:00,17.4,7.3,23.50,NE,45,0.0,3.0,64,0.00,,,0.00,meteohub,2013-02-02 07:06:00,
2013-02-02 00:11:00,17.2,6.8,23.50,NE,45,3.0,3.0,63,0.00,,,0.00,meteohub,2013-02-02 07:11:00,
2013-02-02 00:16:00,16.9,6.4,23.50,North,0,0.0,3.0,63,0.00,,,0.00,meteohub,2013-02-02 07:16:00,
2013-02-02 00:22:00,16.9,6.4,23.50,NE,45,2.0,3.0,63,0.00,,,0.00,meteohub,2013-02-02 07:22:00,
2013-02-02 00:27:00,16.7,6.3,23.50,North,0,1.0,3.0,63,0.00,,,0.00,meteohub,2013-02-02 07:27:00,
2013-02-02 00:32:00,16.9,6.4,23.50,North,0,2.0,3.0,63,0.00,,,0.00,meteohub,2013-02-02 07:32:00,
2013-02-02 00:37:00,16.7,6.6,23.51,North,0,1.0,3.0,64,0.00,,,0.00,meteohub,2013-02-02 07:37:00,
2013-02-02 00:42:00,16.5,6.4,23.51,North,0,2.0,3.0,64,0.00,,,0.00,meteohub,2013-02-02 07:42:00,
2013-02-02 00:47:00,16.5,6.4,23.51,North,0,2.0,3.0,64,0.00,,,0.00,meteohub,2013-02-02 07:47:00,
2013-02-02 00:52:00,16.2,6.1,23.50,NW,315,1.0,2.0,64,0.00,,,0.00,meteohub,2013-02-02 07:52:00,
2013-02-02 00:57:00,15.8,5.4,23.51,North,0,3.0,3.0,63,0.00,,,0.00,meteohub,2013-02-02 07:57:00,
2013-02-02 01:02:00,15.8,5.7,23.51,North,0,1.0,4.0,64,0.00,,,0.00,meteohub,2013-02-02 08:02:00,
2013-02-02 01:07:00,15.8,5.7,23.51,North,0,0.0,4.0,64,0.00,,,0.00,meteohub,2013-02-02 08:07:00,
2013-02-02 01:12:00,15.6,5.9,23.50,North,0,0.0,4.0,65,0.00,,,0.00,meteohub,2013-02-02 08:12:00,
2013-02-02 01:17:00,15.4,5.7,23.50,North,0,2.0,2.0,65,0.00,,,0.00,meteohub,2013-02-02 08:17:00,
2013-02-02 01:22:00,16.3,6.6,23.50,North,0,1.0,3.0,65,0.00,,,0.00,meteohub,2013-02-02 08:22:00,
2013-02-02 01:27:00,17.2,7.5,23.50,NE,45,4.0,4.0,65,0.00,,,0.00,meteohub,2013-02-02 08:27:00,
2013-02-02 01:32:00,17.1,7.3,23.50,North,0,2.0,4.0,65,0.00,,,0.00,meteohub,2013-02-02 08:32:00,
2013-02-02 01:37:00,16.3,6.3,23.50,North,0,2.0,5.0,64,0.00,,,0.00,meteohub,2013-02-02 08:37:00,
2013-02-02 01:42:00,15.8,5.7,23.50,North,0,2.0,5.0,64,0.00,,,0.00,meteohub,2013-02-02 08:42:00,
2013-02-02 01:47:00,15.6,5.9,23.50,North,0,2.0,4.0,65,0.00,,,0.00,meteohub,2013-02-02 08:47:00,
2013-02-02 01:53:00,15.4,5.7,23.50,North,0,0.0,2.0,65,0.00,,,0.00,meteohub,2013-02-02 08:53:00,
2013-02-02 01:58:00,15.4,6.1,23.50,North,0,0.0,2.0,66,0.00,,,0.00,meteohub,2013-02-02 08:58:00,
2013-02-02 02:03:00,15.3,5.9,23.50,NE,45,2.0,2.0,66,0.00,,,0.00,meteohub,2013-02-02 09:03:00,
2013-02-02 02:08:00,15.3,5.9,23.50,NE,45,2.0,2.0,66,0.00,,,0.00,meteohub,2013-02-02 09:08:00,
2013-02-02 02:13:00,15.4,6.1,23.51,North,0,2.0,2.0,66,0.00,,,0.00,meteohub,2013-02-02 09:13:00,
2013-02-02 02:19:00,15.4,6.1,23.51,North,0,0.0,2.0,66,0.00,,,0.00,meteohub,2013-02-02 09:19:00,
2013-02-02 02:24:00,15.1,5.7,23.51,North,0,0.0,2.0,66,0.00,,,0.00,meteohub,2013-02-02 09:24:00,
2013-02-02 02:29:00,15.3,5.9,23.51,NE,45,0.0,2.0,66,0.00,,,0.00,meteohub,2013-02-02 09:29:00,
2013-02-02 02:34:00,15.1,5.7,23.51,NE,45,2.0,2.0,66,0.00,,,0.00,meteohub,2013-02-02 09:34:00,
2013-02-02 02:39:00,14.7,5.4,23.51,North,0,1.0,3.0,66,0.00,,,0.00,meteohub,2013-02-02 09:39:00,
2013-02-02 02:44:00,14.5,5.2,23.51,North,0,2.0,3.0,66,0.00,,,0.00,meteohub,2013-02-02 09:44:00,
2013-02-02 02:49:00,14.4,4.8,23.51,North,0,2.0,3.0,65,0.00,,,0.00,meteohub,2013-02-02 09:49:00,
2013-02-02 02:54:00,14.4,5.0,23.52,North,0,2.0,2.0,66,0.00,,,0.00,meteohub,2013-02-02 09:54:00,
2013-02-02 02:59:00,14.4,5.0,23.51,North,0,2.0,2.0,66,0.00,,,0.00,meteohub,2013-02-02 09:59:00,
2013-02-02 03:04:00,14.4,5.0,23.51,North,0,2.0,2.0,66,0.00,,,0.00,meteohub,2013-02-02 10:04:00,
2013-02-02 03:09:00,14.4,5.0,23.52,North,0,1.0,2.0,66,0.00,,,0.00,meteohub,2013-02-02 10:09:00,
2013-02-02 03:14:00,14.4,5.0,23.52,North,0,2.0,2.0,66,0.00,,,0.00,meteohub,2013-02-02 10:14:00,
2013-02-02 03:20:00,14.4,5.0,23.51,North,0,2.0,2.0,66,0.00,,,0.00,meteohub,2013-02-02 10:20:00,
2013-02-02 03:25:00,14.0,4.8,23.52,North,0,2.0,2.0,66,0.00,,,0.00,meteohub,2013-02-02 10:25:00,
2013-02-02 03:30:00,14.0,4.8,23.51,North,0,1.0,2.0,66,0.00,,,0.00,meteohub,2013-02-02 10:30:00,
2013-02-02 03:35:00,14.0,4.8,23.51,North,0,1.0,2.0,66,0.00,,,0.00,meteohub,2013-02-02 10:35:00,
2013-02-02 03:40:00,13.8,4.8,23.52,North,0,2.0,2.0,67,0.00,,,0.00,meteohub,2013-02-02 10:40:00,
2013-02-02 03:45:00,13.6,4.6,23.51,NE,45,2.0,2.0,67,0.00,,,0.00,meteohub,2013-02-02 10:45:00,
2013-02-02 03:50:00,13.8,4.8,23.51,North,0,2.0,3.0,67,0.00,,,0.00,meteohub,2013-02-02 10:50:00,
2013-02-02 03:55:00,13.6,4.6,23.51,North,0,2.0,3.0,67,0.00,,,0.00,meteohub,2013-02-02 10:55:00,
2013-02-02 04:00:00,13.5,4.6,23.52,North,0,2.0,2.0,67,0.00,,,0.00,meteohub,2013-02-02 11:00:00,
2013-02-02 04:05:00,12.9,4.1,23.51,North,0,1.0,2.0,67,0.00,,,0.00,meteohub,2013-02-02 11:05:00,
2013-02-02 04:11:00,12.7,3.6,23.52,North,0,1.0,2.0,66,0.00,,,0.00,meteohub,2013-02-02 11:11:00,
2013-02-02 04:16:00,12.7,3.6,23.52,North,0,2.0,2.0,66,0.00,,,0.00,meteohub,2013-02-02 11:16:00,
2013-02-02 04:21:00,13.3,4.5,23.51,North,0,2.0,2.0,67,0.00,,,0.00,meteohub,2013-02-02 11:21:00,
2013-02-02 04:26:00,13.6,4.6,23.52,North,0,2.0,2.0,67,0.00,,,0.00,meteohub,2013-02-02 11:26:00,
2013-02-02 04:31:00,13.8,5.2,23.51,West,270,2.0,3.0,68,0.00,,,0.00,meteohub,2013-02-02 11:31:00,
2013-02-02 04:36:00,14.0,5.0,23.52,North,0,0.0,3.0,67,0.00,,,0.00,meteohub,2013-02-02 11:36:00,
2013-02-02 04:41:00,14.0,5.0,23.52,NNE,23,2.0,3.0,67,0.00,,,0.00,meteohub,2013-02-02 11:41:00,
2013-02-02 04:46:00,14.2,5.2,23.52,NNE,23,3.0,3.0,67,0.00,,,0.00,meteohub,2013-02-02 11:46:00,
2013-02-02 04:51:00,14.7,6.1,23.52,North,0,2.0,3.0,68,0.00,,,0.00,meteohub,2013-02-02 11:51:00,
2013-02-02 04:56:00,15.3,6.6,23.52,NE,45,4.0,4.0,68,0.00,,,0.00,meteohub,2013-02-02 11:56:00,
2013-02-02 05:01:00,16.2,7.5,23.52,NNE,23,2.0,4.0,68,0.00,,,0.00,meteohub,2013-02-02 12:01:00,
2013-02-02 05:07:00,16.2,7.5,23.52,NNE,23,2.0,4.0,68,0.00,,,0.00,meteohub,2013-02-02 12:07:00,
2013-02-02 05:12:00,15.8,6.8,23.52,North,0,2.0,4.0,67,0.00,,,0.00,meteohub,2013-02-02 12:12:00,
2013-02-02 05:17:00,15.3,6.3,23.52,North,0,1.0,2.0,67,0.00,,,0.00,meteohub,2013-02-02 12:17:00,
2013-02-02 05:22:00,15.1,6.1,23.52,North,0,2.0,2.0,67,0.00,,,0.00,meteohub,2013-02-02 12:22:00,
2013-02-02 05:27:00,14.7,5.4,23.52,NE,45,0.0,2.0,66,0.00,,,0.00,meteohub,2013-02-02 12:27:00,
2013-02-02 05:32:00,14.7,5.4,23.52,NE,45,0.0,3.0,66,0.00,,,0.00,meteohub,2013-02-02 12:32:00,
2013-02-02 05:37:00,14.5,5.2,23.52,North,0,2.0,3.0,66,0.00,,,0.00,meteohub,2013-02-02 12:37:00,
2013-02-02 05:42:00,14.2,5.0,23.52,NE,45,0.0,2.0,66,0.00,,,0.00,meteohub,2013-02-02 12:42:00,
2013-02-02 05:47:00,14.2,5.0,23.52,NE,45,0.0,2.0,66,0.00,,,0.00,meteohub,2013-02-02 12:47:00,
2013-02-02 05:52:00,13.8,4.8,23.52,NE,45,1.0,2.0,67,0.00,,,0.00,meteohub,2013-02-02 12:52:00,
2013-02-02 05:57:00,13.8,4.8,23.52,NE,45,0.0,2.0,67,0.00,,,0.00,meteohub,2013-02-02 12:57:00,
2013-02-02 06:02:00,13.6,4.6,23.52,NE,45,2.0,3.0,67,0.00,,,0.00,meteohub,2013-02-02 13:02:00,
2013-02-02 06:07:00,13.6,4.6,23.52,North,0,2.0,3.0,67,0.00,,,0.00,meteohub,2013-02-02 13:07:00,
2013-02-02 06:12:00,13.6,4.6,23.52,NNE,23,2.0,3.0,67,0.00,,,0.00,meteohub,2013-02-02 13:12:00,
2013-02-02 06:17:00,13.6,4.6,23.52,North,0,2.0,2.0,67,0.00,,,0.00,meteohub,2013-02-02 13:17:00,
2013-02-02 06:22:00,13.5,4.6,23.52,North,0,1.0,2.0,67,0.00,,,0.00,meteohub,2013-02-02 13:22:00,
2013-02-02 06:27:00,13.3,4.5,23.52,NE,45,2.0,2.0,67,0.00,,,0.00,meteohub,2013-02-02 13:27:00,
2013-02-02 06:32:00,13.3,4.5,23.52,NE,45,2.0,2.0,67,0.00,,,0.00,meteohub,2013-02-02 13:32:00,
2013-02-02 06:37:00,13.6,4.6,23.52,North,0,1.0,2.0,67,0.00,,,0.00,meteohub,2013-02-02 13:37:00,
2013-02-02 06:42:00,13.5,4.6,23.52,North,0,1.0,2.0,67,0.00,,,0.00,meteohub,2013-02-02 13:42:00,
2013-02-02 06:47:00,13.3,4.5,23.52,North,0,0.0,2.0,67,0.00,,,0.00,meteohub,2013-02-02 13:47:00,
2013-02-02 06:52:00,13.1,4.3,23.52,North,0,2.0,2.0,67,0.00,,,0.00,meteohub,2013-02-02 13:52:00,
2013-02-02 06:57:00,13.3,4.5,23.52,North,0,2.0,2.0,67,0.00,,,0.00,meteohub,2013-02-02 13:57:00,
2013-02-02 07:02:00,13.5,4.6,23.52,NE,45,2.0,2.0,67,0.00,,,0.00,meteohub,2013-02-02 14:02:00,
2013-02-02 07:07:00,13.5,4.8,23.53,North,0,2.0,2.0,68,0.00,,,0.00,meteohub,2013-02-02 14:07:00,
2013-02-02 07:12:00,13.5,4.8,23.53,North,0,2.0,2.0,68,0.00,,,0.00,meteohub,2013-02-02 14:12:00,
2013-02-02 07:17:00,13.3,4.6,23.53,North,0,2.0,2.0,68,0.00,,,0.00,meteohub,2013-02-02 14:17:00,
2013-02-02 07:22:00,13.3,4.6,23.52,North,0,0.0,2.0,68,0.00,,,0.00,meteohub,2013-02-02 14:22:00,
2013-02-02 07:28:00,13.1,4.3,23.53,North,0,2.0,2.0,67,0.00,,,0.00,meteohub,2013-02-02 14:28:00,
2013-02-02 07:33:00,13.1,4.3,23.52,North,0,2.0,2.0,67,0.00,,,0.00,meteohub,2013-02-02 14:33:00,
2013-02-02 07:38:00,13.1,4.3,23.52,North,0,2.0,2.0,67,0.00,,,0.00,meteohub,2013-02-02 14:38:00,
2013-02-02 07:43:00,13.1,4.3,23.53,North,0,0.0,2.0,67,0.00,,,0.00,meteohub,2013-02-02 14:43:00,
2013-02-02 07:48:00,13.3,4.5,23.53,North,0,0.0,2.0,67,0.00,,,0.00,meteohub,2013-02-02 14:48:00,
2013-02-02 07:53:00,13.6,4.6,23.52,North,0,2.0,2.0,67,0.00,,,0.00,meteohub,2013-02-02 14:53:00,
2013-02-02 07:58:00,14.0,5.0,23.53,NE,45,1.0,2.0,67,0.00,,,0.00,meteohub,2013-02-02 14:58:00,
2013-02-02 08:03:00,14.2,5.2,23.53,NE,45,1.0,2.0,67,0.00,,,0.00,meteohub,2013-02-02 15:03:00,
2013-02-02 08:08:00,14.4,5.4,23.53,NE,45,2.0,2.0,67,0.00,,,0.00,meteohub,2013-02-02 15:08:00,
2013-02-02 08:13:00,14.5,5.5,23.53,NE,45,2.0,2.0,67,0.00,,,0.00,meteohub,2013-02-02 15:13:00,
2013-02-02 08:19:00,14.5,5.5,23.53,North,0,3.0,3.0,67,0.00,,,0.00,meteohub,2013-02-02 15:19:00,
2013-02-02 08:24:00,14.9,5.9,23.53,NE,45,2.0,3.0,67,0.00,,,0.00,meteohub,2013-02-02 15:24:00,
2013-02-02 08:29:00,15.8,6.4,23.54,North,0,2.0,3.0,66,0.00,,,0.00,meteohub,2013-02-02 15:29:00,
2013-02-02 08:34:00,16.9,7.5,23.53,North,0,3.0,3.0,66,0.00,,,0.00,meteohub,2013-02-02 15:34:00,
2013-02-02 08:39:00,18.5,8.4,23.54,NE,45,3.0,3.0,64,0.00,,,0.00,meteohub,2013-02-02 15:39:00,
2013-02-02 08:44:00,21.4,11.8,23.54,North,0,4.0,4.0,66,0.00,,,0.00,meteohub,2013-02-02 15:44:00,
2013-02-02 08:49:00,25.2,14.0,23.54,North,0,3.0,4.0,62,0.00,,,0.00,meteohub,2013-02-02 15:49:00,
2013-02-02 08:54:00,28.2,13.6,23.54,North,0,3.0,4.0,54,0.00,,,0.00,meteohub,2013-02-02 15:54:00,
2013-02-02 08:59:00,30.0,15.4,23.54,NNE,23,3.0,4.0,54,0.00,,,0.00,meteohub,2013-02-02 15:59:00,
2013-02-02 09:05:00,30.0,14.5,23.54,NNE,23,3.0,4.0,52,0.00,,,0.00,meteohub,2013-02-02 16:05:00,
2013-02-02 09:10:00,31.6,13.6,23.54,NNE,23,3.0,4.0,47,0.00,,,0.00,meteohub,2013-02-02 16:10:00,
2013-02-02 09:15:00,32.4,13.5,23.54,NE,45,2.0,3.0,45,0.00,,,0.00,meteohub,2013-02-02 16:15:00,
2013-02-02 09:20:00,34.2,15.6,23.54,NW,315,0.0,3.0,46,0.00,,,0.00,meteohub,2013-02-02 16:20:00,
2013-02-02 09:25:00,37.9,21.0,23.54,North,0,0.0,3.0,50,0.00,,,0.00,meteohub,2013-02-02 16:25:00,
2013-02-02 09:30:00,41.2,20.8,23.54,North,0,0.0,2.0,44,0.00,,,0.00,meteohub,2013-02-02 16:30:00,
2013-02-02 09:35:00,41.7,20.8,23.54,North,0,0.0,2.0,43,0.00,,,0.00,meteohub,2013-02-02 16:35:00,
2013-02-02 09:40:00,43.5,21.9,23.54,NE,45,2.0,2.0,42,0.00,,,0.00,meteohub,2013-02-02 16:40:00,
2013-02-02 09:45:00,43.5,19.6,23.54,NE,45,0.0,2.0,38,0.00,,,0.00,meteohub,2013-02-02 16:45:00,
2013-02-02 09:50:00,44.1,19.4,23.54,NW,315,0.0,2.0,37,0.00,,,0.00,meteohub,2013-02-02 16:50:00,
2013-02-02 09:56:00,45.5,19.4,23.55,NNE,23,2.0,2.0,35,0.00,,,0.00,meteohub,2013-02-02 16:56:00,
2013-02-02 10:01:00,42.3,13.1,23.54,NW,315,3.0,3.0,30,0.00,,,0.00,meteohub,2013-02-02 17:01:00,
2013-02-02 10:06:00,39.4,13.3,23.54,North,0,2.0,4.0,34,0.00,,,0.00,meteohub,2013-02-02 17:06:00,
2013-02-02 10:11:00,39.0,15.6,23.54,North,0,1.0,4.0,38,0.00,,,0.00,meteohub,2013-02-02 17:11:00,
2013-02-02 10:16:00,40.3,17.2,23.53,North,0,2.0,4.0,39,0.00,,,0.00,meteohub,2013-02-02 17:16:00,
2013-02-02 10:21:00,39.9,15.8,23.53,North,0,2.0,4.0,37,0.00,,,0.00,meteohub,2013-02-02 17:21:00,
2013-02-02 10:26:00,36.7,12.9,23.53,NE,45,2.0,2.0,37,0.00,,,0.00,meteohub,2013-02-02 17:26:00,
2013-02-02 10:31:00,36.3,14.9,23.53,NE,45,0.0,2.0,41,0.00,,,0.00,meteohub,2013-02-02 17:31:00,
2013-02-02 10:36:00,35.6,14.2,23.53,SW,225,0.0,2.0,41,0.00,,,0.00,meteohub,2013-02-02 17:36:00,
2013-02-02 10:41:00,34.2,13.5,23.53,SE,135,1.0,2.0,42,0.00,,,0.00,meteohub,2013-02-02 17:41:00,
2013-02-02 10:46:00,33.6,14.0,23.54,SW,225,0.0,4.0,44,0.00,,,0.00,meteohub,2013-02-02 17:46:00,
2013-02-02 10:52:00,33.3,13.6,23.54,SW,225,0.0,4.0,44,0.00,,,0.00,meteohub,2013-02-02 17:52:00,
2013-02-02 10:57:00,34.3,14.7,23.54,South,180,0.0,3.0,44,0.00,,,0.00,meteohub,2013-02-02 17:57:00,
2013-02-02 11:02:00,35.8,15.4,23.54,South,180,0.0,2.0,43,0.00,,,0.00,meteohub,2013-02-02 18:02:00,
2013-02-02 11:07:00,35.8,15.4,23.53,South,180,0.0,2.0,43,0.00,,,0.00,meteohub,2013-02-02 18:07:00,
2013-02-02 11:12:00,38.5,19.0,23.54,South,180,0.0,0.0,45,0.01,,,0.01,meteohub,2013-02-02 18:12:00,
2013-02-02 11:17:00,38.3,18.3,23.53,South,180,0.0,0.0,44,0.01,,,0.01,meteohub,2013-02-02 18:17:00,
2013-02-02 11:22:00,37.9,18.5,23.53,South,180,0.0,0.0,45,0.01,,,0.01,meteohub,2013-02-02 18:22:00,
2013-02-02 11:27:00,37.9,18.5,23.53,SW,225,0.0,0.0,45,0.01,,,0.01,meteohub,2013-02-02 18:27:00,
2013-02-02 11:32:00,38.3,18.9,23.53,South,180,0.0,0.0,45,0.01,,,0.01,meteohub,2013-02-02 18:32:00,
2013-02-02 11:37:00,38.5,18.5,23.53,South,180,0.0,0.0,44,0.01,,,0.01,meteohub,2013-02-02 18:37:00,
2013-02-02 11:42:00,38.5,18.5,23.53,SW,225,0.0,0.0,44,0.01,,,0.01,meteohub,2013-02-02 18:42:00,
2013-02-02 11:47:00,38.8,19.4,23.53,SW,225,0.0,0.0,45,0.01,,,0.01,meteohub,2013-02-02 18:47:00,
2013-02-02 11:52:00,39.7,19.0,23.52,SW,225,0.0,0.0,43,0.01,,,0.01,meteohub,2013-02-02 18:52:00,
2013-02-02 11:57:00,40.3,19.0,23.52,SW,225,0.0,0.0,42,0.01,,,0.01,meteohub,2013-02-02 18:57:00,
2013-02-02 12:02:00,40.5,18.7,23.52,South,180,0.0,0.0,41,0.01,,,0.01,meteohub,2013-02-02 19:02:00,
2013-02-02 12:07:00,39.6,17.8,23.52,South,180,0.0,0.0,41,0.01,,,0.01,meteohub,2013-02-02 19:07:00,
2013-02-02 12:12:00,39.6,17.8,23.52,SW,225,1.0,1.0,41,0.00,,,0.01,meteohub,2013-02-02 19:12:00,
2013-02-02 12:17:00,40.3,19.0,23.51,SW,225,0.0,1.0,42,0.01,,,0.02,meteohub,2013-02-02 19:17:00,
2013-02-02 12:22:00,41.9,19.9,23.51,SW,225,0.0,1.0,41,0.01,,,0.02,meteohub,2013-02-02 19:22:00,
2013-02-02 12:27:00,43.3,19.4,23.51,SW,225,0.0,1.0,38,0.01,,,0.02,meteohub,2013-02-02 19:27:00,
2013-02-02 12:32:00,44.2,19.0,23.51,West,270,0.0,0.0,36,0.01,,,0.02,meteohub,2013-02-02 19:32:00,
2013-02-02 12:37:00,45.5,19.4,23.51,South,180,0.0,1.0,35,0.01,,,0.02,meteohub,2013-02-02 19:37:00,
2013-02-02 12:42:00,46.0,17.8,23.51,SW,225,0.0,1.0,32,0.02,,,0.04,meteohub,2013-02-02 19:42:00,
2013-02-02 12:47:00,45.5,17.4,23.51,South,180,0.0,1.0,32,0.02,,,0.04,meteohub,2013-02-02 19:47:00,
2013-02-02 12:52:00,43.7,16.5,23.50,West,270,0.0,1.0,33,0.02,,,0.04,meteohub,2013-02-02 19:52:00,
2013-02-02 12:57:00,41.5,16.5,23.50,SW,225,0.0,1.0,36,0.02,,,0.04,meteohub,2013-02-02 19:57:00,
2013-02-02 13:02:00,40.6,17.6,23.50,South,180,0.0,0.0,39,0.02,,,0.04,meteohub,2013-02-02 20:02:00,
2013-02-02 13:07:00,40.6,17.6,23.50,South,180,0.0,1.0,39,0.04,,,0.05,meteohub,2013-02-02 20:07:00,
2013-02-02 13:12:00,38.1,17.6,23.50,SW,225,0.0,1.0,43,0.04,,,0.05,meteohub,2013-02-02 20:12:00,
2013-02-02 13:17:00,37.6,18.1,23.50,SE,135,0.0,0.0,45,0.02,,,0.05,meteohub,2013-02-02 20:17:00,
2013-02-02 13:22:00,37.2,15.6,23.49,South,180,0.0,1.0,41,0.02,,,0.05,meteohub,2013-02-02 20:22:00,
2013-02-02 13:27:00,37.0,15.4,23.49,South,180,0.0,1.0,41,0.02,,,0.05,meteohub,2013-02-02 20:27:00,
2013-02-02 13:32:00,36.9,15.4,23.49,South,180,1.0,1.0,41,0.02,,,0.05,meteohub,2013-02-02 20:32:00,
2013-02-02 13:37:00,36.9,13.6,23.49,NW,315,0.0,1.0,38,0.02,,,0.05,meteohub,2013-02-02 20:37:00,
2013-02-02 13:42:00,37.0,11.8,23.49,South,180,0.0,1.0,35,0.01,,,0.05,meteohub,2013-02-02 20:42:00,
2013-02-02 13:47:00,37.2,12.7,23.49,South,180,1.0,1.0,36,0.01,,,0.05,meteohub,2013-02-02 20:47:00,
2013-02-02 13:52:00,37.2,10.8,23.49,South,180,0.0,1.0,33,0.01,,,0.05,meteohub,2013-02-02 20:52:00,
2013-02-02 13:57:00,37.2,9.3,23.49,SW,225,0.0,1.0,31,0.01,,,0.05,meteohub,2013-02-02 20:57:00,
2013-02-02 14:02:00,37.2,7.9,23.48,SW,225,0.0,1.0,29,0.00,,,0.05,meteohub,2013-02-02 21:02:00,
2013-02-02 14:07:00,37.0,7.7,23.48,South,180,0.0,2.0,29,0.00,,,0.05,meteohub,2013-02-02 21:07:00,
2013-02-02 14:12:00,37.2,7.2,23.48,SW,225,1.0,2.0,28,0.00,,,0.05,meteohub,2013-02-02 21:12:00,
2013-02-02 14:17:00,37.4,10.9,23.48,NW,315,1.0,2.0,33,0.00,,,0.05,meteohub,2013-02-02 21:17:00,
2013-02-02 14:22:00,37.4,10.2,23.48,North,0,1.0,2.0,32,0.00,,,0.05,meteohub,2013-02-02 21:22:00,
2013-02-02 14:27:00,37.4,10.2,23.48,SW,225,0.0,2.0,32,0.00,,,0.05,meteohub,2013-02-02 21:27:00,
2013-02-02 14:32:00,37.2,7.2,23.48,South,180,0.0,2.0,28,0.00,,,0.05,meteohub,2013-02-02 21:32:00,
2013-02-02 14:37:00,37.2,6.3,23.48,NE,45,1.0,1.0,27,0.00,,,0.05,meteohub,2013-02-02 21:37:00,
2013-02-02 14:42:00,37.2,7.2,23.48,North,0,2.0,2.0,28,0.00,,,0.05,meteohub,2013-02-02 21:42:00,
2013-02-02 14:47:00,36.9,5.9,23.48,NE,45,2.0,3.0,27,0.00,,,0.05,meteohub,2013-02-02 21:47:00,
2013-02-02 14:52:00,36.9,5.9,23.47,North,0,2.0,3.0,27,0.00,,,0.05,meteohub,2013-02-02 21:52:00,
2013-02-02 14:57:00,37.0,7.7,23.47,North,0,2.0,4.0,29,0.00,,,0.05,meteohub,2013-02-02 21:57:00,
2013-02-02 15:02:00,36.9,9.0,23.47,NE,45,2.0,4.0,31,0.00,,,0.05,meteohub,2013-02-02 22:02:00,
2013-02-02 15:07:00,36.9,9.0,23.48,NE,45,2.0,4.0,31,0.00,,,0.05,meteohub,2013-02-02 22:07:00,
2013-02-02 15:12:00,36.1,9.1,23.47,NW,315,3.0,3.0,32,0.00,,,0.05,meteohub,2013-02-02 22:12:00,
2013-02-02 15:17:00,36.1,13.6,23.47,NE,45,3.0,4.0,39,0.00,,,0.05,meteohub,2013-02-02 22:17:00,
2013-02-02 15:22:00,35.8,14.4,23.48,NNE,23,2.0,4.0,41,0.00,,,0.05,meteohub,2013-02-02 22:22:00,
2013-02-02 15:27:00,35.4,15.1,23.48,North,0,2.0,4.0,43,0.00,,,0.05,meteohub,2013-02-02 22:27:00,
2013-02-02 15:32:00,35.1,14.9,23.48,NW,315,3.0,4.0,43,0.00,,,0.05,meteohub,2013-02-02 22:32:00,
2013-02-02 15:37:00,34.9,14.7,23.48,North,0,4.0,4.0,43,0.00,,,0.05,meteohub,2013-02-02 22:37:00,
2013-02-02 15:42:00,34.9,14.7,23.48,North,0,4.0,5.0,43,0.00,,,0.05,meteohub,2013-02-02 22:42:00,
2013-02-02 15:47:00,34.7,14.0,23.48,NNE,23,2.0,5.0,42,0.00,,,0.05,meteohub,2013-02-02 22:47:00,
2013-02-02 15:52:00,34.9,14.2,23.48,NE,45,3.0,5.0,42,0.00,,,0.05,meteohub,2013-02-02 22:52:00,
2013-02-02 15:57:00,34.5,13.8,23.48,NE,45,3.0,4.0,42,0.00,,,0.05,meteohub,2013-02-02 22:57:00,
2013-02-02 16:02:00,34.2,13.5,23.48,NE,45,2.0,4.0,42,0.00,,,0.05,meteohub,2013-02-02 23:02:00,
2013-02-02 16:07:00,33.8,13.1,23.48,NE,45,2.0,4.0,42,0.00,,,0.05,meteohub,2013-02-02 23:07:00,
2013-02-02 16:12:00,33.4,13.3,23.47,NW,315,2.0,4.0,43,0.00,,,0.05,meteohub,2013-02-02 23:12:00,
2013-02-02 16:17:00,33.3,13.1,23.47,NE,45,2.0,3.0,43,0.00,,,0.05,meteohub,2013-02-02 23:17:00,
2013-02-02 16:22:00,33.1,13.5,23.47,NE,45,2.0,3.0,44,0.00,,,0.05,meteohub,2013-02-02 23:22:00,
2013-02-02 16:27:00,32.9,13.5,23.47,NE,45,1.0,3.0,44,0.00,,,0.05,meteohub,2013-02-02 23:27:00,
2013-02-02 16:32:00,33.1,13.5,23.47,North,0,2.0,2.0,44,0.00,,,0.05,meteohub,2013-02-02 23:32:00,
2013-02-02 16:37:00,33.1,14.0,23.47,NE,45,2.0,2.0,45,0.00,,,0.05,meteohub,2013-02-02 23:37:00,
2013-02-02 16:42:00,32.9,13.8,23.47,NE,45,1.0,2.0,45,0.00,,,0.05,meteohub,2013-02-02 23:42:00,
2013-02-02 16:47:00,32.9,13.8,23.47,NE,45,0.0,2.0,45,0.00,,,0.05,meteohub,2013-02-02 23:47:00,
2013-02-02 16:52:00,32.7,14.2,23.47,NW,315,0.0,2.0,46,0.00,,,0.05,meteohub,2013-02-02 23:52:00,
2013-02-02 16:57:00,32.7,14.2,23.47,NW,315,0.0,2.0,46,0.00,,,0.05,meteohub,2013-02-02 23:57:00,
2013-02-02 17:02:00,32.5,14.0,23.47,North,0,0.0,1.0,46,0.00,,,0.05,meteohub,2013-02-03 00:02:00,
2013-02-02 17:07:00,32.5,14.0,23.47,North,0,0.0,0.0,46,0.00,,,0.05,meteohub,2013-02-03 00:07:00,
2013-02-02 17:12:00,31.5,14.0,23.47,NE,45,2.0,0.0,48,0.00,,,0.05,meteohub,2013-02-03 00:12:00,
2013-02-02 17:17:00,30.7,13.8,23.47,NE,45,0.0,2.0,49,0.00,,,0.05,meteohub,2013-02-03 00:17:00,
2013-02-02 17:22:00,30.4,13.5,23.47,NE,45,2.0,2.0,49,0.00,,,0.05,meteohub,2013-02-03 00:22:00,
2013-02-02 17:27:00,30.0,13.6,23.47,NE,45,2.0,2.0,50,0.00,,,0.05,meteohub,2013-02-03 00:27:00,
2013-02-02 17:33:00,29.5,13.1,23.47,North,0,2.0,2.0,50,0.00,,,0.05,meteohub,2013-02-03 00:33:00,
2013-02-02 17:38:00,28.6,12.4,23.47,NE,45,2.0,2.0,50,0.00,,,0.05,meteohub,2013-02-03 00:38:00,
2013-02-02 17:43:00,27.5,9.9,23.47,North,0,1.0,2.0,47,0.00,,,0.05,meteohub,2013-02-03 00:43:00,
2013-02-02 17:48:00,27.3,10.2,23.47,North,0,0.0,2.0,48,0.00,,,0.05,meteohub,2013-02-03 00:48:00,
2013-02-02 17:53:00,27.5,10.8,23.47,NNE,23,2.0,2.0,49,0.00,,,0.05,meteohub,2013-02-03 00:53:00,
2013-02-02 17:58:00,27.3,10.8,23.47,North,0,2.0,2.0,49,0.00,,,0.05,meteohub,2013-02-03 00:58:00,
2013-02-02 18:04:00,27.0,10.4,23.47,North,0,2.0,2.0,49,0.00,,,0.05,meteohub,2013-02-03 01:04:00,
2013-02-02 18:09:00,26.2,10.6,23.47,NE,45,2.0,3.0,51,0.00,,,0.05,meteohub,2013-02-03 01:09:00,
2013-02-02 18:14:00,25.9,10.8,23.48,North,0,2.0,3.0,52,0.00,,,0.05,meteohub,2013-02-03 01:14:00,
2013-02-02 18:19:00,25.5,10.4,23.48,North,0,2.0,3.0,52,0.00,,,0.05,meteohub,2013-02-03 01:19:00,
2013-02-02 18:24:00,25.3,10.6,23.48,NE,45,2.0,3.0,53,0.00,,,0.05,meteohub,2013-02-03 01:24:00,
2013-02-02 18:29:00,25.3,10.6,23.48,North,0,2.0,2.0,53,0.00,,,0.05,meteohub,2013-02-03 01:29:00,
2013-02-02 18:34:00,25.2,10.4,23.48,North,0,2.0,2.0,53,0.00,,,0.05,meteohub,2013-02-03 01:34:00,
2013-02-02 18:39:00,25.2,10.9,23.48,North,0,2.0,2.0,54,0.00,,,0.05,meteohub,2013-02-03 01:39:00,
2013-02-02 18:44:00,25.0,10.8,23.48,North,0,2.0,2.0,54,0.00,,,0.05,meteohub,2013-02-03 01:44:00,
2013-02-02 18:49:00,24.8,10.6,23.47,North,0,1.0,2.0,54,0.00,,,0.05,meteohub,2013-02-03 01:49:00,
2013-02-02 18:54:00,24.8,10.6,23.48,North,0,1.0,2.0,54,0.00,,,0.05,meteohub,2013-02-03 01:54:00,
2013-02-02 19:00:00,25.0,10.8,23.48,NE,45,2.0,2.0,54,0.00,,,0.05,meteohub,2013-02-03 02:00:00,
2013-02-02 19:05:00,25.2,10.9,23.48,North,0,2.0,3.0,54,0.00,,,0.05,meteohub,2013-02-03 02:05:00,
2013-02-02 19:10:00,25.0,10.8,23.48,NE,45,2.0,3.0,54,0.00,,,0.05,meteohub,2013-02-03 02:10:00,
2013-02-02 19:15:00,24.6,10.8,23.48,NE,45,2.0,2.0,55,0.00,,,0.05,meteohub,2013-02-03 02:15:00,
2013-02-02 19:20:00,24.4,10.6,23.48,NE,45,2.0,3.0,55,0.00,,,0.05,meteohub,2013-02-03 02:20:00,
2013-02-02 19:25:00,24.3,10.4,23.48,NE,45,2.0,3.0,55,0.00,,,0.05,meteohub,2013-02-03 02:25:00,
2013-02-02 19:30:00,24.4,10.9,23.48,NE,45,2.0,3.0,56,0.00,,,0.05,meteohub,2013-02-03 02:30:00,
2013-02-02 19:35:00,24.4,10.6,23.47,NE,45,1.0,2.0,55,0.00,,,0.05,meteohub,2013-02-03 02:35:00,
2013-02-02 19:40:00,24.3,10.4,23.47,North,0,2.0,2.0,55,0.00,,,0.05,meteohub,2013-02-03 02:40:00,
2013-02-02 19:45:00,23.9,10.0,23.47,North,0,2.0,2.0,55,0.00,,,0.05,meteohub,2013-02-03 02:45:00,
2013-02-02 19:50:00,23.9,10.0,23.47,NE,45,2.0,2.0,55,0.00,,,0.05,meteohub,2013-02-03 02:50:00,
2013-02-02 19:56:00,23.9,10.0,23.47,North,0,2.0,3.0,55,0.00,,,0.05,meteohub,2013-02-03 02:56:00,
2013-02-02 20:01:00,23.9,10.0,23.47,North,0,2.0,3.0,55,0.00,,,0.05,meteohub,2013-02-03 03:01:00,
2013-02-02 20:06:00,23.9,10.0,23.47,NNE,23,2.0,3.0,55,0.00,,,0.05,meteohub,2013-02-03 03:06:00,
2013-02-02 20:11:00,23.7,9.5,23.47,North,0,2.0,3.0,54,0.00,,,0.05,meteohub,2013-02-03 03:11:00,
2013-02-02 20:16:00,23.5,9.3,23.47,North,0,2.0,2.0,54,0.00,,,0.05,meteohub,2013-02-03 03:16:00,
2013-02-02 20:21:00,23.4,9.1,23.47,NE,45,2.0,2.0,54,0.00,,,0.05,meteohub,2013-02-03 03:21:00,
2013-02-02 20:26:00,23.0,8.8,23.47,NNE,23,2.0,2.0,54,0.00,,,0.05,meteohub,2013-02-03 03:26:00,
2013-02-02 20:31:00,22.8,9.1,23.47,North,0,2.0,3.0,55,0.00,,,0.05,meteohub,2013-02-03 03:31:00,
2013-02-02 20:36:00,22.6,9.0,23.47,NNE,23,2.0,3.0,55,0.00,,,0.05,meteohub,2013-02-03 03:36:00,
2013-02-02 20:41:00,22.5,9.1,23.46,North,0,2.0,3.0,56,0.00,,,0.05,meteohub,2013-02-03 03:41:00,
2013-02-02 20:46:00,22.5,9.1,23.46,North,0,2.0,2.0,56,0.00,,,0.05,meteohub,2013-02-03 03:46:00,
2013-02-02 20:52:00,22.5,9.1,23.46,NE,45,2.0,2.0,56,0.00,,,0.05,meteohub,2013-02-03 03:52:00,
2013-02-02 20:57:00,22.3,8.6,23.46,NNE,23,2.0,2.0,55,0.00,,,0.05,meteohub,2013-02-03 03:57:00,
2013-02-02 21:02:00,22.1,8.4,23.46,NE,45,2.0,2.0,55,0.00,,,0.05,meteohub,2013-02-03 04:02:00,
2013-02-02 21:07:00,22.1,8.4,23.46,NE,45,2.0,2.0,55,0.00,,,0.05,meteohub,2013-02-03 04:07:00,
2013-02-02 21:12:00,22.1,8.4,23.46,NE,45,2.0,2.0,55,0.00,,,0.05,meteohub,2013-02-03 04:12:00,
2013-02-02 21:17:00,22.3,9.0,23.46,NE,45,1.0,2.0,56,0.00,,,0.05,meteohub,2013-02-03 04:17:00,
2013-02-02 21:22:00,22.6,9.3,23.46,NE,45,2.0,2.0,56,0.00,,,0.05,meteohub,2013-02-03 04:22:00,
2013-02-02 21:27:00,22.5,9.1,23.46,North,0,2.0,2.0,56,0.00,,,0.05,meteohub,2013-02-03 04:27:00,
2013-02-02 21:32:00,22.5,9.1,23.46,North,0,2.0,2.0,56,0.00,,,0.05,meteohub,2013-02-03 04:32:00,
2013-02-02 21:37:00,22.3,9.0,23.46,North,0,2.0,2.0,56,0.00,,,0.05,meteohub,2013-02-03 04:37:00,
2013-02-02 21:42:00,22.1,8.8,23.46,NE,45,2.0,2.0,56,0.00,,,0.05,meteohub,2013-02-03 04:42:00,
2013-02-02 21:47:00,22.1,8.8,23.46,NE,45,2.0,2.0,56,0.00,,,0.05,meteohub,2013-02-03 04:47:00,
2013-02-02 21:52:00,21.9,8.6,23.46,NE,45,2.0,2.0,56,0.00,,,0.05,meteohub,2013-02-03 04:52:00,
2013-02-02 21:57:00,21.9,8.6,23.46,NE,45,1.0,2.0,56,0.00,,,0.05,meteohub,2013-02-03 04:57:00,
2013-02-02 22:00:00,21.9,9.0,23.46,North,0,2.0,2.0,57,0.00,,,0.05,meteohub,2013-02-03 05:00:00,
2013-02-02 22:01:00,21.9,9.0,23.46,North,0,1.0,2.0,57,0.00,,,0.05,meteohub,2013-02-03 05:01:00,
2013-02-02 22:05:00,21.9,8.6,23.46,NE,45,2.0,2.0,56,0.00,,,0.05,meteohub,2013-02-03 05:05:00,
2013-02-02 22:10:00,21.7,8.4,23.46,North,0,0.0,2.0,56,0.00,,,0.05,meteohub,2013-02-03 05:10:00,
2013-02-02 22:15:00,21.7,8.4,23.46,North,0,2.0,2.0,56,0.00,,,0.05,meteohub,2013-02-03 05:15:00,
2013-02-02 22:20:00,21.7,8.8,23.46,North,0,1.0,2.0,57,0.00,,,0.05,meteohub,2013-02-03 05:20:00,
2013-02-02 22:25:00,21.9,9.0,23.45,NW,315,0.0,2.0,57,0.00,,,0.05,meteohub,2013-02-03 05:25:00,
2013-02-02 22:30:00,21.7,8.8,23.46,NE,45,2.0,2.0,57,0.00,,,0.05,meteohub,2013-02-03 05:30:00,
2013-02-02 22:35:00,21.7,8.4,23.45,North,0,2.0,2.0,56,0.00,,,0.05,meteohub,2013-02-03 05:35:00,
2013-02-02 22:40:00,21.6,8.2,23.45,NE,45,2.0,2.0,56,0.00,,,0.05,meteohub,2013-02-03 05:40:00,
2013-02-02 22:45:00,21.6,8.2,23.45,North,0,1.0,2.0,56,0.00,,,0.05,meteohub,2013-02-03 05:45:00,
2013-02-02 22:51:00,21.7,8.8,23.45,North,0,2.0,2.0,57,0.00,,,0.05,meteohub,2013-02-03 05:51:00,
2013-02-02 22:56:00,21.9,9.0,23.45,North,0,0.0,2.0,57,0.00,,,0.05,meteohub,2013-02-03 05:56:00,
2013-02-02 23:01:00,21.6,8.2,23.45,NE,45,2.0,2.0,56,0.00,,,0.05,meteohub,2013-02-03 06:01:00,
2013-02-02 23:06:00,21.6,8.2,23.45,NE,45,2.0,2.0,56,0.00,,,0.05,meteohub,2013-02-03 06:06:00,
2013-02-02 23:11:00,21.2,7.9,23.44,NE,45,0.0,2.0,56,0.00,,,0.05,meteohub,2013-02-03 06:11:00,
2013-02-02 23:16:00,21.2,7.9,23.44,North,0,2.0,2.0,56,0.00,,,0.05,meteohub,2013-02-03 06:16:00,
2013-02-02 23:21:00,21.0,8.2,23.44,North,0,2.0,2.0,57,0.00,,,0.05,meteohub,2013-02-03 06:21:00,
2013-02-02 23:26:00,21.0,8.2,23.44,NE,45,2.0,2.0,57,0.00,,,0.05,meteohub,2013-02-03 06:26:00,
2013-02-02 23:31:00,21.0,8.2,23.44,NE,45,2.0,2.0,57,0.00,,,0.05,meteohub,2013-02-03 06:31:00,
2013-02-02 23:36:00,21.0,8.2,23.44,NE,45,1.0,2.0,57,0.00,,,0.05,meteohub,2013-02-03 06:36:00,
2013-02-02 23:41:00,21.0,8.2,23.44,North,0,2.0,2.0,57,0.00,,,0.05,meteohub,2013-02-03 06:41:00,
2013-02-02 23:47:00,20.8,8.1,23.44,North,0,2.0,2.0,57,0.00,,,0.05,meteohub,2013-02-03 06:47:00,
2013-02-02 23:52:00,21.0,7.7,23.44,North,0,0.0,2.0,56,0.00,,,0.05,meteohub,2013-02-03 06:52:00,
2013-02-02 23:57:00,20.8,8.1,23.44,NNE,23,2.0,2.0,57,0.00,,,0.05,meteohub,2013-02-03 06:57:00,